Date,TemperatureHighF,TemperatureAvgF,TemperatureLowF,DewpointHighF,DewpointAvgF,DewpointLowF,HumidityHigh,HumidityAvg,HumidityLow,PressureMaxIn,PressureMinIn,WindSpeedMaxMPH,WindSpeedAvgMPH,GustSpeedMaxMPH,PrecipitationSumIn
2013-3-1,36.3,24.2,27.8,29.7,3.0,-99.9,96,70,76,29.77,29.65,3,-180,7,0.00
2013-3-2,37.6,33.8,29.1,34.5,31.5,26.0,100,91,85,29.68,29.62,4,2,7,0.00
2013-3-3,40.3,35.3,33.1,38.9,24.2,-99.9,100,86,88,29.63,29.45,3,-40,4,0.00
2013-3-4,41.9,19.0,35.5,35.2,-33.6,-99.9,90,41,73,29.81,29.45,4,-498,18,0.00
2013-3-5,39.6,34.7,31.2,30.9,25.8,-99.9,86,74,65,30.30,29.81,4,-19,8,0.00
2013-3-6,36.6,30.3,27.3,24.6,19.8,15.6,78,65,53,30.45,30.31,3,1,9,0.00
2013-3-7,32.1,28.0,26.0,21.3,18.7,16.1,75,68,58,30.45,30.35,4,1,11,0.00
2013-3-8,42.6,29.6,20.2,21.6,18.7,14.8,88,66,36,30.39,30.33,5,1,12,0.00
2013-3-9,44.6,29.3,19.7,23.2,19.1,-99.9,94,70,36,30.44,30.34,3,-10,6,0.00
2013-3-10,36.3,29.1,19.1,23.4,20.8,16.1,97,73,51,30.45,30.19,5,2,10,0.00
2013-3-11,45.1,37.5,31.6,31.4,27.6,21.9,79,68,53,30.20,30.04,7,3,13,0.00
2013-3-12,43.4,39.8,35.8,41.8,36.0,-99.9,96,88,77,30.07,29.82,7,-3,14,0.30
2013-3-13,45.5,41.2,34.5,44.4,39.1,26.1,98,92,71,29.82,29.55,6,2,14,0.15
2013-3-14,38.9,32.3,22.1,27.9,22.8,15.0,87,69,47,29.65,29.48,8,2,15,0.00
2013-3-15,25.9,18.7,10.1,15.3,8.8,5.9,89,66,47,29.69,29.56,5,2,10,0.00
2013-3-16,26.1,16.1,6.0,9.4,4.9,-1.2,91,64,32,29.85,29.63,8,2,17,0.00
2013-3-17,17.1,10.3,4.5,9.2,0.4,-8.5,85,65,43,30.21,29.84,8,3,22,0.00
2013-3-18,25.1,11.6,0.8,1.4,-3.5,-8.8,79,52,29,30.36,30.20,8,3,20,0.00
2013-3-19,29.9,16.6,0.5,10.5,3.7,-2.7,87,60,34,30.36,29.89,5,1,13,0.00
2013-3-20,27.9,21.9,15.4,25.4,19.4,10.3,94,90,62,29.89,29.38,4,2,10,0.00
2013-3-21,35.5,25.6,15.9,26.5,20.4,13.7,94,82,54,29.70,29.46,6,2,13,0.08
2013-3-22,35.5,22.2,6.7,26.4,18.2,4.1,95,85,62,29.66,29.33,8,2,15,0.11
2013-3-23,36.3,30.0,25.5,33.1,27.3,23.8,94,89,83,29.52,29.23,6,3,13,0.21
2013-3-24,43.2,31.6,20.0,33.1,26.5,18.3,95,82,63,29.80,29.52,7,2,13,0.27
2013-3-25,40.5,31.8,20.5,28.4,24.5,19.0,98,76,51,29.79,29.71,4,1,10,0.03
2013-3-26,40.8,31.5,19.6,31.8,26.8,17.9,97,84,63,29.70,29.60,8,2,10,0.01
2013-3-27,47.3,38.5,32.7,37.0,34.5,31.8,98,86,63,29.88,29.66,4,1,10,0.21
2013-3-28,50.5,39.1,29.3,33.8,28.8,23.7,98,71,36,29.91,29.85,6,2,11,0.00
2013-3-29,48.4,35.7,23.6,32.4,23.7,11.6,98,68,26,29.96,29.88,6,2,14,0.00
2013-3-30,47.4,31.7,17.2,23.3,17.1,11.2,97,62,24,30.05,29.95,5,1,11,0.00
2013-3-31,50.7,27.6,14.5,22.2,16.3,12.3,93,69,25,30.08,29.87,5,1,9,0.00